Estación de Morza Norte
Ultimos registro cada 15 minutos 40
| N° | Estación | Fecha / Hora | Temperatura | Humedad | Lluvia | Velocidad | Dirección | Radiación | Presion |
| 40 | Morza Norte | 07-05-2026 09:45 | 9,1 | 71 | 0 | 0 | 260 | 81 | 1028,3 |
| 39 | Morza Norte | 07-05-2026 09:30 | 9 | 71 | 0 | 0 | 271 | 81 | 1028,3 |
| 38 | Morza Norte | 07-05-2026 09:15 | 8,8 | 71 | 0 | 0 | 272 | 84 | 1028 |
| 37 | Morza Norte | 07-05-2026 09:00 | 8,7 | 71 | 0 | 0 | 333 | 67 | 1028,1 |
| 36 | Morza Norte | 07-05-2026 08:45 | 8,4 | 71 | 0 | 0 | 335 | 51 | 1027,8 |
| 35 | Morza Norte | 07-05-2026 08:30 | 8,3 | 71 | 0 | 0 | 312 | 42 | 1027,8 |
| 34 | Morza Norte | 07-05-2026 08:15 | 8,1 | 71 | 0 | 0 | 288 | 37 | 1027,6 |
| 33 | Morza Norte | 07-05-2026 08:00 | 7,9 | 71 | 0 | 0 | 247 | 12 | 1027,4 |
| 32 | Morza Norte | 07-05-2026 07:45 | 7,7 | 71 | 0 | 0 | 287 | 7 | 1027,2 |
| 31 | Morza Norte | 07-05-2026 07:30 | 7,6 | 71 | 0 | 0 | 159 | 5 | 1026,7 |
| 30 | Morza Norte | 07-05-2026 07:15 | 7,8 | 70 | 0 | 0 | 159 | 0 | 1026,8 |
| 29 | Morza Norte | 07-05-2026 07:00 | 8 | 70 | 0 | 0 | 158 | 0 | 1026,8 |
| 28 | Morza Norte | 07-05-2026 06:45 | 8,3 | 70 | 0 | 0 | 158 | 0 | 1026,9 |
| 27 | Morza Norte | 07-05-2026 06:30 | 8,6 | 70 | 0 | 0 | 279 | 0 | 1026,8 |
| 26 | Morza Norte | 07-05-2026 06:15 | 8,6 | 70 | 0 | 0 | 158 | 0 | 1026,9 |
| 25 | Morza Norte | 07-05-2026 06:00 | 8,6 | 70 | 0 | 0 | 110 | 0 | 1026,4 |
| 24 | Morza Norte | 07-05-2026 05:45 | 8,6 | 70 | 0 | 0 | 110 | 0 | 1026,4 |
| 23 | Morza Norte | 07-05-2026 05:30 | 8,6 | 70 | 0 | 0 | 132 | 0 | 1026,4 |
| 22 | Morza Norte | 07-05-2026 05:15 | 8,6 | 70 | 0 | 0 | 161 | 0 | 1025,9 |
| 21 | Morza Norte | 07-05-2026 05:00 | 8,6 | 70 | 0 | 0 | 160 | 0 | 1025,9 |
| 20 | Morza Norte | 07-05-2026 04:45 | 8,8 | 70 | 0 | 0 | 169 | 0 | 1025,6 |
| 19 | Morza Norte | 07-05-2026 04:30 | 8,8 | 99 | 0 | 0 | 138 | 0 | 1025,6 |
| 18 | Morza Norte | 07-05-2026 04:15 | 8,9 | 70 | 0 | 0 | 151 | 0 | 1025,2 |
| 17 | Morza Norte | 07-05-2026 04:00 | 8,9 | 70 | 0 | 0 | 156 | 0 | 1025,3 |
| 16 | Morza Norte | 07-05-2026 03:45 | 9 | 70 | 0 | 0 | 157 | 0 | 1025,2 |
| 15 | Morza Norte | 07-05-2026 03:30 | 9,1 | 99 | 0 | 0 | 157 | 0 | 1025,2 |
| 14 | Morza Norte | 07-05-2026 03:15 | 9,1 | 70 | 0 | 0 | 160 | 0 | 1025,2 |
| 13 | Morza Norte | 07-05-2026 03:00 | 9,2 | 70 | 0 | 0 | 158 | 0 | 1025,3 |
| 12 | Morza Norte | 07-05-2026 02:45 | 9,2 | 70 | 0 | 0 | 155 | 0 | 1025,1 |
| 11 | Morza Norte | 07-05-2026 02:30 | 9,2 | 99 | 0 | 0,4 | 169 | 0 | 1025,3 |
| 10 | Morza Norte | 07-05-2026 02:15 | 9,3 | 70 | 0 | 0 | 310 | 0 | 1025 |
| 9 | Morza Norte | 07-05-2026 02:00 | 9,3 | 70 | 0 | 0 | 174 | 0 | 1024,6 |
| 8 | Morza Norte | 07-05-2026 01:45 | 9,4 | 70 | 0 | 0 | 266 | 0 | 1024,6 |
| 7 | Morza Norte | 07-05-2026 01:30 | 9,5 | 71 | 0 | 0 | 268 | 0 | 1024,3 |
| 6 | Morza Norte | 07-05-2026 01:15 | 9,6 | 70 | 0 | 0 | 216 | 0 | 1024,3 |
| 5 | Morza Norte | 07-05-2026 01:00 | 9,8 | 71 | 0 | 0 | 245 | 0 | 1024,1 |
| 4 | Morza Norte | 07-05-2026 00:45 | 9,8 | 71 | 0 | 0 | 245 | 0 | 1024,1 |
| 3 | Morza Norte | 07-05-2026 00:30 | 9,8 | 71 | 0 | 0 | 161 | 0 | 1024,3 |
| 2 | Morza Norte | 07-05-2026 00:15 | 9,9 | 71 | 0 | 0 | 160 | 0 | 1024,4 |
| 1 | Morza Norte | 07-05-2026 00:00 | 10,2 | 71 | 0 | 0,4 | 133 | 0 | 1024,2 |